This is the latest recevied weather packets stored in our database for station/object N4ASP-13. If no packets are shown the sender has not sent any weather packets the latest 10 day(s).
| Time | Temp. | Humidity | Pressure | Rain* | Wind** | Luminosity | Snow |
|---|---|---|---|---|---|---|---|
| 1777666752 | 17.78° C | 54% | 1011.8 hPa | 0 mm | - | 594 W/m² | - |
| 1777666692 | 17.78° C | 52% | 1011.7 hPa | 0 mm | - | 642 W/m² | - |
| 1777666631 | 17.78° C | 51% | 1012 hPa | 0 mm | - | 578 W/m² | - |
| 1777666563 | 17.78° C | 52% | 1012 hPa | 0 mm | - | 705 W/m² | - |
| 1777666504 | 17.78° C | 53% | 1011.8 hPa | 0 mm | - | 679 W/m² | - |
| 1777666444 | 17.78° C | 54% | 1012 hPa | 0 mm | - | 645 W/m² | - |
| 1777666385 | 17.78° C | 53% | 1012 hPa | 0 mm | - | 744 W/m² | - |
| 1777666324 | 17.78° C | 55% | 1012.3 hPa | 0 mm | - | 807 W/m² | - |
| 1777666260 | 17.78° C | 54% | 1012.1 hPa | 0 mm | - | 770 W/m² | - |
| 1777666200 | 17.78° C | 54% | 1012.1 hPa | 0 mm | - | 779 W/m² | - |
| 1777666140 | 17.22° C | 55% | 1012.1 hPa | 0 mm | - | 819 W/m² | - |
| 1777666081 | 17.22° C | 54% | 1012.2 hPa | 0 mm | - | 751 W/m² | - |
| 1777666019 | 17.22° C | 55% | 1012.1 hPa | 0 mm | - | 798 W/m² | - |
| 1777665949 | 17.22° C | 55% | 1012.1 hPa | 0 mm | - | 788 W/m² | - |
| 1777665889 | 17.22° C | 55% | 1012.1 hPa | 0 mm | - | 817 W/m² | - |
| 1777665829 | 17.22° C | 55% | 1012.2 hPa | 0 mm | - | 803 W/m² | - |
| 1777665768 | 17.22° C | 54% | 1012.2 hPa | 0 mm | - | 751 W/m² | - |
| 1777665709 | 17.22° C | 54% | 1012.3 hPa | 0 mm | - | 728 W/m² | - |
| 1777665644 | 17.22° C | 53% | 1012.2 hPa | 0 mm | - | 631 W/m² | - |
| 1777665583 | 17.22° C | 55% | 1012.3 hPa | 0 mm | - | 631 W/m² | - |
| 1777665523 | 17.22° C | 56% | 1012.3 hPa | 0 mm | - | 636 W/m² | - |
| 1777665461 | 17.22° C | 54% | 1012.2 hPa | 0 mm | - | 619 W/m² | - |
| 1777665403 | 17.22° C | 54% | 1012.3 hPa | 0 mm | - | 596 W/m² | - |
| 1777665340 | 17.22° C | 55% | 1012.2 hPa | 0 mm | - | 631 W/m² | - |
| 1777665277 | 17.22° C | 55% | 1012.3 hPa | 0 mm | - | 591 W/m² | - |
* Rain latest hour (hover to see other rain measurements)
** Current wind speed in m/s (hover to see current wind gust speed)